| time (UTC) | temp F | wind direction | speed knots | gust knots | rain 1hr in | rain 24hr in | rain mn in | humidity % | barometer mb |
| 20260505212044 | 83 | 336 | 0.9 | 3.5 | 0.00 | 0.00 | 0.00 | 78 | 1008.0 |
| 20260505211559 | 83 | 37 | 0.0 | 3.5 | 0.00 | 0.00 | 0.00 | 78 | 1007.9 |
| 20260505211044 | 83 | 85 | 0.0 | 1.7 | 0.00 | 0.00 | 0.00 | 79 | 1007.9 |
| 20260505210545 | 83 | 37 | 0.0 | 1.7 | 0.00 | 0.00 | 0.00 | 80 | 1008.0 |
| 20260505210051 | 83 | 13 | 0.0 | 2.6 | 0.00 | 0.00 | 0.00 | 80 | 1008.1 |
| 20260505205546 | 83 | 41 | 0.9 | 2.6 | 0.00 | 0.00 | 0.00 | 79 | 1008.1 |
| 20260505205040 | 83 | 36 | 0.9 | 3.5 | 0.00 | 0.00 | 0.00 | 78 | 1008.2 |
| 20260505204552 | 84 | 350 | 0.9 | 3.5 | 0.00 | 0.00 | 0.00 | 78 | 1008.3 |
| 20260505204044 | 84 | 332 | 0.9 | 2.6 | 0.00 | 0.00 | 0.00 | 78 | 1008.2 |
| 20260505203544 | 84 | 349 | 0.9 | 4.3 | 0.00 | 0.00 | 0.00 | 78 | 1008.3 |
| 20260505203053 | 84 | 49 | 0.9 | 4.3 | 0.00 | 0.00 | 0.00 | 78 | 1008.3 |
| 20260505202545 | 84 | 44 | 0.9 | 2.6 | 0.00 | 0.00 | 0.00 | 78 | 1008.4 |
| 20260505202044 | 83 | 58 | 0.0 | 1.7 | 0.00 | 0.00 | 0.00 | 80 | 1008.6 |
| 20260505201602 | 83 | 39 | 0.0 | 3.5 | 0.00 | 0.00 | 0.00 | 80 | 1008.7 |
| 20260505201047 | 83 | 46 | 0.9 | 5.2 | 0.00 | 0.00 | 0.00 | 79 | 1008.9 |
| 20260505200544 | 84 | 27 | 0.9 | 5.2 | 0.00 | 0.00 | 0.00 | 77 | 1008.9 |
| 20260505195546 | 84 | 47 | 0.0 | 2.6 | 0.00 | 0.00 | 0.00 | 79 | 1009.0 |
| 20260505195045 | 83 | 75 | 0.9 | 2.6 | 0.00 | 0.00 | 0.00 | 79 | 1009.0 |
| 20260505194555 | 83 | 56 | 0.0 | 2.6 | 0.00 | 0.00 | 0.00 | 81 | 1009.0 |
| 20260505194043 | 82 | 39 | 0.9 | 2.6 | 0.00 | 0.00 | 0.00 | 82 | 1009.1 |
| 20260505193543 | 81 | 342 | 0.9 | 4.3 | 0.00 | 0.00 | 0.00 | 82 | 1009.1 |
| 20260505193052 | 81 | 36 | 0.9 | 4.3 | 0.00 | 0.00 | 0.00 | 82 | 1009.3 |
| 20260505192548 | 81 | 348 | 1.7 | 4.3 | 0.00 | 0.00 | 0.00 | 82 | 1009.3 |
| 20260505192047 | 81 | 3 | 0.0 | 2.6 | 0.00 | 0.00 | 0.00 | 82 | 1009.4 |
| 20260505191556 | 81 | 0 | 0.0 | 2.6 | 0.00 | 0.00 | 0.00 | 81 | 1009.4 |
| 20260505191159 | 81 | 360 | 0.9 | 3.5 | 0.00 | 0.00 | 0.00 | 81 | 1009.5 |
| 20260505190544 | 82 | 20 | 0.9 | 3.5 | 0.00 | 0.00 | 0.00 | 81 | 1009.5 |
| 20260505185544 | 82 | 303 | 0.0 | 1.7 | 0.00 | 0.00 | 0.00 | 81 | 1009.6 |
| 20260505185044 | 82 | 25 | 0.9 | 3.5 | 0.00 | 0.00 | 0.00 | 81 | 1009.6 |
| 20260505184553 | 82 | 80 | 0.9 | 3.5 | 0.00 | 0.00 | 0.00 | 81 | 1009.6 |
| 20260505184044 | 82 | 0 | 0.9 | 5.2 | 0.00 | 0.00 | 0.00 | 81 | 1009.6 |
| 20260505183543 | 81 | 309 | 0.9 | 7.8 | 0.00 | 0.00 | 0.00 | 81 | 1009.7 |
| 20260505183053 | 82 | 37 | 1.7 | 7.8 | 0.00 | 0.00 | 0.00 | 81 | 1009.7 |
| 20260505182543 | 82 | 23 | 0.0 | 2.6 | 0.00 | 0.00 | 0.00 | 81 | 1009.7 |
| 20260505182045 | 81 | 18 | 0.0 | 3.5 | 0.00 | 0.00 | 0.00 | 81 | 1009.7 |
| 20260505181549 | 81 | 32 | 0.9 | 3.5 | 0.00 | 0.00 | 0.00 | 82 | 1009.7 |
| 20260505181046 | 80 | 8 | 0.9 | 1.7 | 0.00 | 0.00 | 0.00 | 82 | 1009.7 |
| 20260505180542 | 80 | 25 | 0.9 | 3.5 | 0.00 | 0.00 | 0.00 | 82 | 1009.7 |
| 20260505180050 | 80 | 0 | 0.0 | 3.5 | 0.00 | 0.00 | 0.00 | 82 | 1009.7 |
| 20260505175540 | 80 | 54 | 0.0 | 3.5 | 0.00 | 0.00 | 0.00 | 82 | 1009.8 |
| 20260505175044 | 80 | 81 | 0.9 | 5.2 | 0.00 | 0.00 | 0.00 | 82 | 1009.8 |
| 20260505174552 | 80 | 34 | 0.9 | 5.2 | 0.00 | 0.00 | 0.00 | 82 | 1009.8 |
| 20260505174044 | 80 | 53 | 0.9 | 5.2 | 0.00 | 0.00 | 0.00 | 83 | 1009.9 |
| 20260505173547 | 80 | 355 | 0.9 | 2.6 | 0.00 | 0.00 | 0.00 | 83 | 1010.0 |
| 20260505173050 | 80 | 354 | 0.9 | 2.6 | 0.00 | 0.00 | 0.00 | 83 | 1010.2 |
| 20260505172543 | 79 | 0 | 0.0 | 0.0 | 0.00 | 0.00 | 0.00 | 85 | 1010.2 |
| 20260505172041 | 79 | 0 | 0.0 | 0.0 | 0.00 | 0.00 | 0.00 | 85 | 1010.2 |
| 20260505171546 | 79 | 0 | 0.0 | 0.0 | 0.00 | 0.00 | 0.00 | 85 | 1010.3 |
| 20260505171048 | 78 | 0 | 0.0 | 0.0 | 0.00 | 0.00 | 0.00 | 85 | 1010.2 |
| 20260505170541 | 78 | 0 | 0.0 | 0.9 | 0.00 | 0.00 | 0.00 | 86 | 1010.2 |
| 20260505170046 | 78 | 0 | 0.0 | 1.7 | 0.00 | 0.00 | 0.00 | 86 | 1010.2 |
| 20260505165540 | 78 | 25 | 0.0 | 1.7 | 0.00 | 0.00 | 0.00 | 86 | 1010.2 |
| 20260505165048 | 78 | 28 | 0.0 | 0.9 | 0.00 | 0.00 | 0.00 | 85 | 1010.4 |
| 20260505164549 | 78 | 53 | 0.0 | 1.7 | 0.00 | 0.00 | 0.00 | 85 | 1010.3 |
| 20260505164040 | 78 | 0 | 0.0 | 1.7 | 0.00 | 0.00 | 0.00 | 85 | 1010.3 |
| 20260505163540 | 78 | 30 | 0.9 | 1.7 | 0.00 | 0.00 | 0.00 | 85 | 1010.3 |
| 20260505163051 | 78 | 38 | 0.0 | 1.7 | 0.00 | 0.00 | 0.00 | 85 | 1010.2 |
| 20260505162543 | 78 | 56 | 0.0 | 3.5 | 0.00 | 0.00 | 0.00 | 86 | 1010.1 |
| 20260505162041 | 77 | 9 | 0.0 | 3.5 | 0.00 | 0.00 | 0.00 | 86 | 1010.1 |
| 20260505161544 | 77 | 8 | 0.9 | 3.5 | 0.00 | 0.00 | 0.00 | 85 | 1010.2 |
| 20260505161041 | 77 | 0 | 0.9 | 1.7 | 0.00 | 0.00 | 0.00 | 85 | 1010.2 |
| 20260505160542 | 77 | 39 | 0.0 | 1.7 | 0.00 | 0.00 | 0.00 | 85 | 1010.3 |
| 20260505160105 | 78 | 332 | 0.9 | 1.7 | 0.00 | 0.00 | 0.00 | 85 | 1010.3 |
| 20260505153052 | 78 | 67 | 0.0 | 1.7 | 0.00 | 0.00 | 0.00 | 85 | 1010.1 |
| 20260505152540 | 77 | 330 | 0.0 | 1.7 | 0.00 | 0.00 | 0.00 | 85 | 1010.0 |
| 20260505152045 | 77 | 30 | 0.0 | 1.7 | 0.00 | 0.00 | 0.00 | 85 | 1010.1 |
| 20260505151549 | 77 | 32 | 0.0 | 1.7 | 0.00 | 0.00 | 0.00 | 85 | 1010.1 |
| 20260505151046 | 77 | 0 | 0.0 | 3.5 | 0.00 | 0.00 | 0.00 | 85 | 1010.1 |
| 20260505150541 | 77 | 44 | 0.0 | 3.5 | 0.00 | 0.00 | 0.00 | 85 | 1010.2 |
| 20260505140544 | 75 | 35 | 0.9 | 2.6 | 0.00 | 0.00 | 0.00 | 86 | 1009.9 |
| 20260505124553 | 73 | 359 | 0.9 | 1.7 | 0.00 | 0.00 | 0.00 | 87 | 1009.6 |
| 20260505124040 | 73 | 351 | 0.0 | 1.7 | 0.00 | 0.00 | 0.00 | 87 | 1009.6 |
| 20260505123543 | 73 | 16 | 0.9 | 3.5 | 0.00 | 0.00 | 0.00 | 87 | 1009.5 |
| 20260505123049 | 73 | 341 | 0.9 | 3.5 | 0.00 | 0.00 | 0.00 | 87 | 1009.7 |
| 20260505122543 | 73 | 0 | 0.0 | 1.7 | 0.00 | 0.00 | 0.00 | 87 | 1009.6 |
| 20260505122043 | 73 | 0 | 0.0 | 2.6 | 0.00 | 0.00 | 0.00 | 87 | 1009.5 |
| 20260505121555 | 73 | 9 | 0.9 | 2.6 | 0.00 | 0.00 | 0.00 | 87 | 1009.3 |
| 20260505121045 | 73 | 349 | 0.9 | 1.7 | 0.00 | 0.00 | 0.00 | 87 | 1009.3 |
| 20260505120544 | 73 | 309 | 0.0 | 1.7 | 0.00 | 0.00 | 0.00 | 87 | 1009.1 |
| 20260505120052 | 73 | 68 | 0.0 | 1.7 | 0.00 | 0.00 | 0.00 | 87 | 1009.2 |
| 20260505115540 | 73 | 349 | 0.9 | 3.5 | 0.00 | 0.00 | 0.00 | 87 | 1009.1 |
| 20260505115040 | 73 | 45 | 0.9 | 3.5 | 0.00 | 0.00 | 0.00 | 87 | 1009.4 |
| 20260505114549 | 73 | 4 | 0.9 | 3.5 | 0.00 | 0.00 | 0.00 | 87 | 1009.3 |
| 20260505114044 | 73 | 8 | 0.0 | 3.5 | 0.00 | 0.00 | 0.00 | 87 | 1009.4 |
| 20260505113547 | 73 | 32 | 0.0 | 3.5 | 0.00 | 0.00 | 0.00 | 87 | 1009.3 |
| 20260505113048 | 73 | 19 | 0.9 | 3.5 | 0.00 | 0.00 | 0.00 | 87 | 1009.2 |
| 20260505112548 | 73 | 52 | 0.0 | 3.5 | 0.00 | 0.00 | 0.00 | 87 | 1009.1 |
| 20260505112044 | 73 | 13 | 0.9 | 3.5 | 0.00 | 0.00 | 0.00 | 87 | 1009.0 |
| 20260505111549 | 73 | 29 | 0.0 | 2.6 | 0.00 | 0.00 | 0.00 | 87 | 1009.1 |
| 20260505111044 | 72 | 0 | 0.9 | 2.6 | 0.00 | 0.00 | 0.00 | 87 | 1009.1 |
| 20260505110544 | 72 | 33 | 0.9 | 2.6 | 0.00 | 0.00 | 0.00 | 87 | 1009.0 |
| 20260505102044 | 72 | 0 | 0.0 | 1.7 | 0.00 | 0.00 | 0.00 | 88 | 1009.2 |
| 20260505101548 | 72 | 0 | 0.9 | 1.7 | 0.00 | 0.00 | 0.00 | 88 | 1009.1 |
| 20260505101041 | 72 | 0 | 0.0 | 2.6 | 0.00 | 0.00 | 0.00 | 88 | 1009.2 |
| 20260505100544 | 72 | 0 | 0.0 | 2.6 | 0.00 | 0.00 | 0.00 | 88 | 1009.2 |
| 20260505100044 | 72 | 14 | 0.9 | 2.6 | 0.00 | 0.00 | 0.00 | 88 | 1009.1 |
| 20260505095540 | 72 | 15 | 0.9 | 1.7 | 0.00 | 0.00 | 0.00 | 88 | 1009.1 |
| 20260505095043 | 71 | 359 | 0.9 | 1.7 | 0.00 | 0.00 | 0.00 | 88 | 1009.2 |
| 20260505094545 | 71 | 349 | 0.0 | 1.7 | 0.00 | 0.00 | 0.00 | 88 | 1009.1 |
| 20260505094041 | 71 | 47 | 0.0 | 1.7 | 0.00 | 0.00 | 0.00 | 88 | 1009.3 |
| 20260505093543 | 71 | 0 | 0.0 | 0.9 | 0.00 | 0.00 | 0.00 | 89 | 1009.4 |
| 20260505093044 | 71 | 0 | 0.0 | 0.9 | 0.00 | 0.00 | 0.00 | 89 | 1009.4 |
| 20260505092544 | 71 | 36 | 0.0 | 0.9 | 0.00 | 0.00 | 0.00 | 89 | 1009.4 |
| 20260505092040 | 70 | 36 | 0.0 | 1.7 | 0.00 | 0.00 | 0.00 | 89 | 1009.3 |
| 20260505091552 | 70 | 0 | 0.0 | 1.7 | 0.00 | 0.00 | 0.00 | 88 | 1009.4 |
| 20260505091040 | 71 | 0 | 0.0 | 1.7 | 0.00 | 0.00 | 0.00 | 88 | 1009.4 |
| 20260505090540 | 71 | 0 | 0.0 | 1.7 | 0.00 | 0.00 | 0.00 | 88 | 1009.4 |
| 20260505090050 | 71 | 352 | 0.0 | 1.7 | 0.00 | 0.00 | 0.00 | 88 | 1009.5 |
| 20260505085541 | 71 | 0 | 0.0 | 1.7 | 0.00 | 0.00 | 0.00 | 88 | 1009.5 |
| 20260505085044 | 71 | 0 | 0.0 | 1.7 | 0.00 | 0.00 | 0.00 | 88 | 1009.5 |
| 20260505084551 | 71 | 70 | 0.0 | 0.9 | 0.00 | 0.00 | 0.00 | 88 | 1009.6 |
| 20260505084044 | 71 | 28 | 0.0 | 1.7 | 0.00 | 0.00 | 0.00 | 88 | 1009.6 |
| 20260505083543 | 71 | 0 | 0.0 | 1.7 | 0.00 | 0.00 | 0.00 | 88 | 1009.5 |
| 20260505083048 | 71 | 0 | 0.0 | 1.7 | 0.00 | 0.00 | 0.00 | 88 | 1009.6 |
| 20260505082541 | 71 | 20 | 0.0 | 1.7 | 0.00 | 0.00 | 0.00 | 88 | 1009.5 |
| 20260505082041 | 71 | 56 | 0.0 | 1.7 | 0.00 | 0.00 | 0.00 | 87 | 1009.7 |
| 20260505081554 | 71 | 49 | 0.9 | 1.7 | 0.00 | 0.00 | 0.00 | 87 | 1009.7 |
| 20260505081040 | 71 | 0 | 0.0 | 1.7 | 0.00 | 0.00 | 0.00 | 87 | 1009.7 |
| 20260505080543 | 71 | 43 | 0.0 | 1.7 | 0.00 | 0.00 | 0.00 | 87 | 1009.7 |
| 20260505080103 | 71 | 35 | 0.0 | 1.7 | 0.00 | 0.00 | 0.00 | 87 | 1009.7 |
| 20260505075542 | 71 | 40 | 0.9 | 1.7 | 0.00 | 0.00 | 0.00 | 87 | 1009.7 |
| 20260505075044 | 71 | 27 | 0.0 | 1.7 | 0.00 | 0.00 | 0.00 | 87 | 1009.8 |
| 20260505074553 | 70 | 50 | 0.0 | 1.7 | 0.00 | 0.00 | 0.00 | 87 | 1009.8 |
| 20260505074040 | 70 | 48 | 0.0 | 1.7 | 0.00 | 0.00 | 0.00 | 87 | 1009.8 |
| 20260505073540 | 70 | 0 | 0.0 | 2.6 | 0.00 | 0.00 | 0.00 | 87 | 1009.9 |
| 20260505073058 | 71 | 56 | 0.0 | 2.6 | 0.00 | 0.00 | 0.00 | 87 | 1010.0 |
| 20260505072545 | 70 | 111 | 0.0 | 4.3 | 0.00 | 0.00 | 0.00 | 87 | 1010.0 |
| 20260505072046 | 70 | 32 | 0.0 | 4.3 | 0.00 | 0.00 | 0.00 | 87 | 1010.0 |
| 20260505071552 | 70 | 36 | 0.9 | 4.3 | 0.00 | 0.00 | 0.00 | 87 | 1010.1 |
| 20260505071046 | 70 | 11 | 0.0 | 1.7 | 0.00 | 0.00 | 0.00 | 87 | 1010.1 |
| 20260505070546 | 70 | 32 | 0.0 | 1.7 | 0.00 | 0.00 | 0.00 | 87 | 1010.1 |
| 20260505070055 | 70 | 42 | 0.0 | 2.6 | 0.00 | 0.00 | 0.00 | 87 | 1010.2 |
| 20260505065546 | 70 | 61 | 0.9 | 2.6 | 0.00 | 0.00 | 0.00 | 87 | 1010.2 |
| 20260505065045 | 70 | 20 | 0.9 | 2.6 | 0.00 | 0.00 | 0.00 | 87 | 1010.2 |
| 20260505064547 | 70 | 0 | 0.0 | 1.7 | 0.00 | 0.00 | 0.00 | 87 | 1010.3 |
| 20260505064045 | 70 | 29 | 0.0 | 2.6 | 0.00 | 0.00 | 0.00 | 87 | 1010.6 |
| 20260505063545 | 70 | 30 | 0.0 | 2.6 | 0.00 | 0.00 | 0.00 | 87 | 1010.5 |
| 20260505063111 | 70 | 30 | 0.0 | 1.7 | 0.00 | 0.00 | 0.00 | 87 | 1010.6 |
| 20260505062546 | 70 | 35 | 0.0 | 1.7 | 0.00 | 0.00 | 0.00 | 87 | 1010.7 |
| 20260505062044 | 70 | 65 | 0.0 | 1.7 | 0.00 | 0.00 | 0.00 | 87 | 1010.7 |
| 20260505061548 | 70 | 84 | 0.0 | 1.7 | 0.00 | 0.00 | 0.00 | 86 | 1010.8 |
| 20260505061049 | 70 | 37 | 0.0 | 3.5 | 0.00 | 0.00 | 0.00 | 86 | 1010.7 |
| 20260505060545 | 70 | 6 | 0.9 | 3.5 | 0.00 | 0.00 | 0.00 | 86 | 1010.7 |
| 20260505060056 | 70 | 29 | 0.0 | 3.5 | 0.00 | 0.00 | 0.00 | 86 | 1010.7 |
| 20260505055546 | 70 | 0 | 0.0 | 3.5 | 0.00 | 0.00 | 0.00 | 86 | 1010.8 |
| 20260505055045 | 70 | 28 | 0.9 | 3.5 | 0.00 | 0.00 | 0.00 | 86 | 1010.9 |
| 20260505054604 | 70 | 59 | 0.0 | 1.7 | 0.00 | 0.00 | 0.00 | 86 | 1010.9 |
| 20260505054046 | 70 | 0 | 0.0 | 1.7 | 0.00 | 0.00 | 0.00 | 86 | 1010.9 |
| 20260505053544 | 70 | 13 | 0.0 | 1.7 | 0.00 | 0.00 | 0.00 | 86 | 1011.1 |
| 20260505053100 | 70 | 38 | 0.0 | 1.7 | 0.00 | 0.00 | 0.00 | 86 | 1011.0 |
| 20260505052545 | 70 | 49 | 0.0 | 1.7 | 0.00 | 0.00 | 0.00 | 86 | 1011.2 |
| 20260505052047 | 70 | 0 | 0.0 | 0.9 | 0.00 | 0.00 | 0.00 | 86 | 1011.3 |
| 20260505051553 | 70 | 56 | 0.0 | 0.9 | 0.00 | 0.00 | 0.00 | 86 | 1011.2 |
| 20260505051047 | 70 | 0 | 0.0 | 0.9 | 0.00 | 0.00 | 0.00 | 85 | 1011.2 |
| 20260505050545 | 71 | 0 | 0.0 | 0.9 | 0.00 | 0.00 | 0.00 | 85 | 1011.2 |
| 20260505041556 | 72 | 338 | 0.9 | 3.5 | 0.00 | 0.00 | 0.00 | 81 | 1011.3 |
| 20260505041044 | 72 | 330 | 1.7 | 3.5 | 0.00 | 0.00 | 0.00 | 81 | 1011.5 |
| 20260505040544 | 72 | 50 | 0.9 | 3.5 | 0.00 | 0.00 | 0.00 | 81 | 1011.4 |
| 20260505040055 | 73 | 8 | 0.9 | 3.5 | 0.00 | 0.00 | 0.00 | 81 | 1011.3 |
| 20260505035545 | 72 | 341 | 1.7 | 4.3 | 0.00 | 0.00 | 0.00 | 81 | 1011.3 |
| 20260505035048 | 72 | 297 | 1.7 | 4.3 | 0.00 | 0.00 | 0.00 | 81 | 1011.3 |
| 20260505034558 | 72 | 356 | 0.9 | 2.6 | 0.00 | 0.00 | 0.00 | 82 | 1011.4 |
| 20260505034049 | 72 | 22 | 0.9 | 2.6 | 0.00 | 0.00 | 0.00 | 82 | 1011.6 |
| 20260505033546 | 72 | 31 | 0.0 | 2.6 | 0.00 | 0.00 | 0.00 | 82 | 1011.7 |
| 20260505033056 | 72 | 6 | 0.0 | 0.9 | 0.00 | 0.00 | 0.00 | 83 | 1011.7 |
| 20260505032544 | 72 | 0 | 0.0 | 1.7 | 0.00 | 0.00 | 0.00 | 82 | 1011.6 |
| 20260505032046 | 72 | 352 | 0.0 | 1.7 | 0.00 | 0.00 | 0.00 | 82 | 1011.7 |
| 20260505031603 | 72 | 34 | 0.0 | 0.9 | 0.00 | 0.00 | 0.00 | 82 | 1011.6 |
| 20260505031045 | 72 | 0 | 0.0 | 1.7 | 0.00 | 0.00 | 0.00 | 82 | 1011.6 |
| 20260505030545 | 72 | 0 | 0.0 | 1.7 | 0.00 | 0.00 | 0.00 | 81 | 1011.5 |
| 20260505030103 | 72 | 94 | 0.0 | 1.7 | 0.00 | 0.00 | 0.00 | 81 | 1011.4 |
| 20260505025546 | 72 | 15 | 0.0 | 1.7 | 0.00 | 0.00 | 0.00 | 81 | 1011.5 |
| 20260505025045 | 72 | 18 | 0.0 | 1.7 | 0.00 | 0.00 | 0.00 | 81 | 1011.5 |
| 20260505024603 | 72 | 0 | 0.0 | 0.9 | 0.00 | 0.00 | 0.00 | 81 | 1011.6 |
| 20260505024045 | 72 | 0 | 0.0 | 0.9 | 0.00 | 0.00 | 0.00 | 81 | 1011.5 |
| 20260505023545 | 72 | 45 | 0.0 | 1.7 | 0.00 | 0.00 | 0.00 | 81 | 1011.5 |
| 20260505023059 | 72 | 51 | 0.0 | 1.7 | 0.00 | 0.00 | 0.00 | 81 | 1011.6 |
| 20260505022545 | 72 | 53 | 0.0 | 1.7 | 0.00 | 0.00 | 0.00 | 81 | 1011.5 |
| 20260505022045 | 72 | 135 | 0.0 | 2.6 | 0.00 | 0.00 | 0.00 | 81 | 1011.5 |
| 20260505021559 | 72 | 0 | 0.0 | 2.6 | 0.00 | 0.00 | 0.00 | 81 | 1011.5 |
| 20260505021044 | 72 | 7 | 0.0 | 1.7 | 0.00 | 0.00 | 0.00 | 81 | 1011.5 |
| 20260505020542 | 72 | 0 | 0.0 | 1.7 | 0.00 | 0.00 | 0.00 | 81 | 1011.5 |
| 20260505020053 | 72 | 360 | 0.0 | 0.9 | 0.00 | 0.00 | 0.00 | 80 | 1011.4 |
| 20260505015550 | 72 | 356 | 0.0 | 2.6 | 0.00 | 0.00 | 0.00 | 80 | 1011.2 |
| 20260505015046 | 72 | 27 | 0.0 | 2.6 | 0.00 | 0.00 | 0.00 | 80 | 1011.1 |
| 20260505014608 | 72 | 40 | 0.0 | 1.7 | 0.00 | 0.00 | 0.00 | 80 | 1011.0 |
| 20260505014047 | 72 | 23 | 0.0 | 1.7 | 0.00 | 0.00 | 0.00 | 80 | 1010.9 |
| 20260505013543 | 72 | 18 | 0.0 | 1.7 | 0.00 | 0.00 | 0.00 | 79 | 1011.0 |
| 20260505013049 | 72 | 38 | 0.0 | 2.6 | 0.00 | 0.00 | 0.00 | 79 | 1011.0 |
| 20260505012543 | 72 | 14 | 0.0 | 2.6 | 0.00 | 0.00 | 0.00 | 78 | 1011.0 |
| 20260505012045 | 73 | 339 | 0.9 | 1.7 | 0.00 | 0.00 | 0.00 | 78 | 1011.1 |
| 20260505011556 | 73 | 0 | 0.9 | 1.7 | 0.00 | 0.00 | 0.00 | 78 | 1011.1 |
| 20260505011044 | 73 | 0 | 0.0 | 1.7 | 0.00 | 0.00 | 0.00 | 78 | 1011.0 |
| 20260505010540 | 73 | 25 | 0.0 | 1.7 | 0.00 | 0.00 | 0.00 | 77 | 1011.0 |
| 20260505010048 | 73 | 8 | 0.9 | 1.7 | 0.00 | 0.00 | 0.00 | 77 | 1011.1 |
| 20260505005544 | 74 | 28 | 0.0 | 1.7 | 0.00 | 0.00 | 0.00 | 76 | 1011.1 |
| 20260505005047 | 74 | 30 | 0.0 | 3.5 | 0.00 | 0.00 | 0.00 | 76 | 1010.9 |
| 20260505004547 | 74 | 44 | 0.0 | 3.5 | 0.00 | 0.00 | 0.00 | 75 | 1010.8 |
| 20260505004043 | 74 | 9 | 0.9 | 3.5 | 0.00 | 0.00 | 0.00 | 75 | 1010.8 |
| 20260505003543 | 74 | 338 | 0.9 | 3.5 | 0.00 | 0.00 | 0.00 | 75 | 1010.8 |
| 20260505003049 | 74 | 39 | 0.0 | 2.6 | 0.00 | 0.00 | 0.00 | 75 | 1010.9 |
| 20260505002540 | 75 | 349 | 0.9 | 3.5 | 0.00 | 0.00 | 0.00 | 75 | 1010.9 |
| 20260505002046 | 75 | 316 | 0.9 | 3.5 | 0.00 | 0.00 | 0.00 | 74 | 1011.0 |
| 20260505001545 | 75 | 357 | 0.9 | 2.6 | 0.00 | 0.00 | 0.00 | 75 | 1011.0 |
| 20260505001045 | 75 | 304 | 0.0 | 2.6 | 0.00 | 0.00 | 0.00 | 75 | 1011.1 |
| 20260505000540 | 75 | 356 | 0.9 | 3.5 | 0.00 | 0.00 | 0.00 | 74 | 1011.1 |
| 20260504235540 | 75 | 25 | 0.9 | 3.5 | 0.00 | 0.00 | 0.00 | 74 | 1011.1 |
| 20260504235040 | 75 | 355 | 0.9 | 3.5 | 0.00 | 0.00 | 0.00 | 74 | 1011.1 |
| 20260504234550 | 76 | 289 | 0.0 | 2.6 | 0.00 | 0.00 | 0.00 | 74 | 1011.1 |
| 20260504234043 | 76 | 18 | 0.9 | 2.6 | 0.00 | 0.00 | 0.00 | 73 | 1011.1 |
| 20260504233543 | 76 | 0 | 0.0 | 3.5 | 0.00 | 0.00 | 0.00 | 74 | 1011.1 |
| 20260504233105 | 76 | 46 | 0.0 | 3.5 | 0.00 | 0.00 | 0.00 | 73 | 1011.2 |
| 20260504232544 | 76 | 337 | 0.9 | 3.5 | 0.00 | 0.00 | 0.00 | 72 | 1011.2 |
| 20260504232044 | 76 | 345 | 0.0 | 3.5 | 0.00 | 0.00 | 0.00 | 72 | 1011.3 |
| 20260504231548 | 77 | 0 | 0.9 | 2.6 | 0.00 | 0.00 | 0.00 | 72 | 1011.5 |
| 20260504231041 | 77 | 359 | 0.0 | 2.6 | 0.00 | 0.00 | 0.00 | 71 | 1011.4 |
| 20260504230540 | 77 | 36 | 0.9 | 3.5 | 0.00 | 0.00 | 0.00 | 70 | 1011.5 |
| 20260504230050 | 78 | 34 | 0.9 | 3.5 | 0.00 | 0.00 | 0.00 | 70 | 1011.4 |
| 20260504225541 | 78 | 30 | 0.9 | 3.5 | 0.00 | 0.00 | 0.00 | 69 | 1011.4 |
| 20260504225042 | 78 | 356 | 0.9 | 2.6 | 0.00 | 0.00 | 0.00 | 69 | 1011.4 |
| 20260504224553 | 77 | 325 | 0.0 | 3.5 | 0.00 | 0.00 | 0.00 | 70 | 1011.6 |
| 20260504224044 | 77 | 326 | 0.9 | 3.5 | 0.00 | 0.00 | 0.00 | 70 | 1011.7 |
| 20260504223544 | 77 | 335 | 0.9 | 3.5 | 0.00 | 0.00 | 0.00 | 69 | 1011.7 |
| 20260504223110 | 78 | 45 | 0.9 | 3.5 | 0.00 | 0.00 | 0.00 | 68 | 1011.8 |
| 20260504222544 | 78 | 353 | 0.9 | 3.5 | 0.00 | 0.00 | 0.00 | 68 | 1011.9 |
| 20260504222043 | 79 | 0 | 0.9 | 2.6 | 0.00 | 0.00 | 0.00 | 68 | 1012.0 |
| 20260504221556 | 79 | 0 | 0.9 | 2.6 | 0.00 | 0.00 | 0.00 | 67 | 1011.9 |
| 20260504221046 | 79 | 6 | 0.9 | 2.6 | 0.00 | 0.00 | 0.00 | 66 | 1011.8 |
| 20260504220544 | 80 | 338 | 0.9 | 3.5 | 0.00 | 0.00 | 0.00 | 66 | 1011.9 |
| 20260504220057 | 80 | 335 | 1.7 | 3.5 | 0.00 | 0.00 | 0.00 | 65 | 1011.8 |
| 20260504215544 | 80 | 323 | 0.9 | 3.5 | 0.00 | 0.00 | 0.00 | 64 | 1012.0 |
| 20260504215045 | 81 | 359 | 0.9 | 7.0 | 0.00 | 0.00 | 0.00 | 64 | 1012.0 |
| 20260504214552 | 82 | 26 | 0.9 | 7.0 | 0.00 | 0.00 | 0.00 | 62 | 1012.0 |
| 20260504214048 | 82 | 331 | 1.7 | 3.5 | 0.00 | 0.00 | 0.00 | 63 | 1012.1 |
| 20260504213540 | 82 | 348 | 0.9 | 3.5 | 0.00 | 0.00 | 0.00 | 63 | 1012.0 |
| 20260504213105 | 82 | 51 | 1.7 | 3.5 | 0.00 | 0.00 | 0.00 | 62 | 1012.0 |
| 20260504212544 | 82 | 18 | 0.9 | 3.5 | 0.00 | 0.00 | 0.00 | 62 | 1012.2 |